Location: Aero Crafter Incorporated Heliport
(33.1248°N, 96.5222°W)
Time: 09:47:20
(UTC+00:00)

ATLAS 3B R/B - Pass Details

Date: 18 November 2025
Orbit: 935 x 1258 km, 63.8° (Epoch: 07 December)

Event Time Altitude Azimuth Distance (km) Brightness Sun altitude
Exits shadow 12:03:11 14° 274° (W) 2,808 4.3 -12.1°
Maximum altitude 12:07:37 23° 316° (NW) 2,329 4.0 -11.2°
Drops below altitude 10° 12:13:37 10° 6° (N) 3,230 5.1 -10.0°
Sets 12:17:12 0° 21° (NNE) 4,213 5.9 -9.3°
